Il Post

 
 

Meteo Giornale » Osservazioni meteo Austria » Salisburgo

ore: 06:50 - Osservazioni Meteo Salisburgo
Lat. 47° 48' N Lon. 13° 0' E Alt. 430 metri s.l.m.

molto_nuvoloso Europe/Vienna

13 °C

Molto Nuvoloso

Temp. 24 Ore

13 °C

21 °C

Sud

7.4 Km/h

Dew point 13 °C

Umidità 100 %

Visibilità  10 Km

Il sole sorge alle ore 06:13

Il sole tramonta alle ore 20:08

Data e Ora Cielo e Fenomeni T °C DP °C Um. % Pres. hPa Vis. km Vento km/h
Oggi h: 06:50 molto_nuvoloso Molto Nuvoloso 13 13 100 1015 10 S 7.4
Oggi h: 06:20 molto_nuvoloso Molto Nuvoloso 14 13 93 1016 10 S/SE 7.4
Oggi h: 05:50 molto_nuvoloso Molto Nuvoloso 14 13 93 1016 10 S 9.3
Oggi h: 05:20 molto_nuvoloso Molto Nuvoloso 15 13 87 1015 10 S/SE 11.1
Oggi h: 04:50 molto_nuvoloso Molto Nuvoloso 15 13 87 1016 10 S/SE 11.1
Oggi h: 04:20 nuvoloso_piovaschi Debole Rovescio di Pioggia 15 14 93 1015 10 S 14.8
Oggi h: 03:50 nuvoloso_piovaschi Debole Rovescio di Pioggia 15 14 93 1016 10 S/SE 14.8
Oggi h: 03:20 nuvoloso_piovaschi Debole Rovescio di Pioggia 15 14 93 1016 10 S/SE 14.8
Oggi h: 02:50 nuvoloso_piovaschi Debole Rovescio di Pioggia 15 14 93 1016 10 SE 13
Oggi h: 02:20 molto_nuvoloso Molto Nuvoloso 15 14 93 1016 10 S 14.8
Oggi h: 01:50 molto_nuvoloso Molto Nuvoloso 15 14 93 1016 10 S/SE 9.3
Oggi h: 01:20 molto_nuvoloso Molto Nuvoloso 15 14 93 1016 10 SE 7.4
Oggi h: 00:50 molto_nuvoloso Molto Nuvoloso 15 14 93 1016 10 S 14.8
Oggi h: 00:20 molto_nuvoloso Molto Nuvoloso 15 14 93 1016 10 N 3.7
Ieri h: 23:50 nuvoloso_piovaschi Debole Rovescio di Pioggia 15 14 93 1016 10 SE 11.1
Ieri h: 23:20 nuvoloso_piovaschi Debole Rovescio di Pioggia 16 14 87 1016 10 S/SE 11.1
Ieri h: 22:50 molto_nuvoloso Molto Nuvoloso 16 14 87 1016 10 S/SE 11.1
Ieri h: 22:20 molto_nuvoloso Molto Nuvoloso 16 14 87 1016 10 S/SE 11.1
Ieri h: 21:50 molto_nuvoloso Molto Nuvoloso 16 14 87 1016 10 S/SE 9.3
Ieri h: 21:20 molto_nuvoloso Molto Nuvoloso 16 14 87 1016 10 S/SE 9.3
Ieri h: 20:50 molto_nuvoloso Molto Nuvoloso 17 14 82 1015 10 N 5.5
Ieri h: 20:20 molto_nuvoloso Molto Nuvoloso 17 14 82 1015 10 N 5.5
Ieri h: 19:50 nuvoloso Nuvoloso 17 13 77 1015 10 N 5.5
Ieri h: 19:20 nuvoloso Nuvoloso 20 12 59 1014 10 N 5.5
Ieri h: 18:50 nuvoloso Nuvoloso 20 11 56 1015 10 N 5.5
Ieri h: 18:20 molto_nuvoloso Molto Nuvoloso 20 11 56 1015 10 NO 13
Ieri h: 17:50 molto_nuvoloso Molto Nuvoloso 20 11 56 1015 10 NO 13
Ieri h: 17:20 molto_nuvoloso Molto Nuvoloso 20 12 59 1015 10 NO 16.7
Ieri h: 16:50 nuvoloso Nuvoloso 21 12 56 1014 10 NO 14.8
Ieri h: 16:20 nuvoloso Nuvoloso 21 11 52 1015 10 N/NO 11.1
Ieri h: 15:50 molto_nuvoloso Molto Nuvoloso 21 10 49 1015 10 N/NO 9.3
Ieri h: 15:20 molto_nuvoloso Molto Nuvoloso 20 11 56 1015 10 N/NO 7.4
Ieri h: 14:50 molto_nuvoloso Molto Nuvoloso 21 11 52 1015 10 N 11.1
Ieri h: 14:20 nuvoloso Nuvoloso 21 12 56 1015 10 NO 9.3
Ieri h: 13:50 poco_nuvoloso Poco Nuvoloso 21 11 52 1015 10 O/NO 7.4
Ieri h: 13:20 poco_nuvoloso Poco Nuvoloso 21 12 56 1016 10 N/NE 9.3
Ieri h: 12:50 poco_nuvoloso Poco Nuvoloso 20 11 56 1016 10 N/NO 7.4
Ieri h: 12:20 nuvoloso Nuvoloso 20 11 56 1016 10 N 9.3
Ieri h: 11:50 nuvoloso Nuvoloso 19 10 55 1016 10 N/NO 7.4
Ieri h: 11:20 nuvoloso Nuvoloso 18 9 55 1016 10 N 3.7
Ieri h: 10:50 nuvoloso Nuvoloso 17 10 63 1016 10 O/NO 7.4
Ieri h: 10:20 nuvoloso Nuvoloso 17 11 67 1016 10 N 3.7
Ieri h: 09:50 nuvoloso Nuvoloso 16 11 72 1016 10 N 5.5
Ieri h: 09:20 nuvoloso Nuvoloso 15 12 82 1016 10 S/SE 9.3
Ieri h: 08:50 nuvoloso Nuvoloso 15 11 76 1016 10 S/SE 9.3
Ieri h: 08:20 nuvoloso Nuvoloso 15 12 82 1016 10 SE 13
Ieri h: 07:50 poco_nuvoloso Poco Nuvoloso 13 11 87 1016 10 S 9.3